YBPN

Details ICAO YBPN (PPP)
Name Proserpine Whitsunday Coast
Region Australia
Timezone Australia/Brisbane (UTC+10.0)
Plans Departing 115
Arriving 126
Stats Elevation 82 ft / 25 m (AMSL)
Location -20.493300° 148.557000°
Runways 2
Magnetic Variation 8.035° E
Sunrise 2020-08-09 20:32:42 UTC / 2020-08-10 06:32:42 Local
Sunset 2020-08-10 07:52:18 UTC / 2020-08-10 17:52:18 Local
Advertisement - Login to hide

Runways

ID Width Length Bearing (true/mag) Surface Threshold Overrun Markings Lighting
06 98 ft / 30 m 4,104 ft / 1,251 m 67.07° / 59.04° ASPHALT 0 ft / 0 m 0 ft / 0 m NONE
11 148 ft / 45 m 6,802 ft / 2,073 m 114.60° / 106.57° ASPHALT 0 ft / 0 m 0 ft / 0 m APP EDGE THRESHOLD
24 98 ft / 30 m 4,104 ft / 1,251 m 247.07° / 239.03° ASPHALT 0 ft / 0 m 0 ft / 0 m NONE
29 148 ft / 45 m 6,802 ft / 2,073 m 294.60° / 286.56° ASPHALT 0 ft / 0 m 230 ft / 70 m APP EDGE THRESHOLD

Map

Weather


0- 5 10 15 20 25 30 35+ Temperature / °C

Clouds and Precipitation
Forecast for 2020-08-10 12:00 UTC. Updated 40 minutes ago

Ground ~20,000 ft ~40,000 ft Winds

METAR

YBPN 101000Z AUTO 28004KT 9999 // NCD 12/09 Q1016

TAF

Not found

Frequencies

Unicom 126.70 MHz CTAF
Warning: Do not use this data for real-world aviation or navigation. No guarantee of current accuracy is given.